Location: Plymouth
(43.7490°N, 87.9770°W)
Time: 05:40:24
(UTC-05:00)

Daily predictions for brighter satellites

Satellite Brightness Start Highest point End
(mag) Time Altitude Azimuth Time Altitude Azimuth Time Altitude Azimuth
Meteor 2-1 Rocket 4.2 00:02:29 10° NNW 00:08:25 84° W 00:09:46 55° S
S3M 4.0 00:02:10 10° N 00:08:26 75° E 00:10:04 50° SSE
Cosmos 1766 Rocket 3.5 00:08:57 76° ESE 00:09:00 76° E 00:13:30 10° NNE
Cosmos 1076 Rocket 3.4 00:09:33 83° NE 00:09:33 83° NE 00:13:42 10° N
Cosmos 1340 3.9 00:09:25 33° W 00:09:40 34° WNW 00:13:10 10° N
Cosmos 2221 2.7 00:07:01 10° NNW 00:11:15 58° W 00:11:18 58° W
Cosmos 1867 3.8 00:11:27 49° ESE 00:11:29 49° ESE 00:16:45 10° NE
Cosmos 1470 4.2 00:08:42 10° NNW 00:11:59 27° W 00:11:59 27° W
NOSS 3-2 (C) 3.4 00:11:29 48° SSW 00:13:20 78° ESE 00:20:02 10° NE
Cosmos 841 Rocket 4.2 00:09:11 10° N 00:14:15 45° ENE 00:15:38 37° ESE
Cosmos 1328 Rocket 4.1 00:10:53 10° N 00:15:08 47° ENE 00:15:14 47° E
Cosmos 1428 Rocket 4.4 00:16:11 53° S 00:17:42 79° E 00:23:55 10° N
Meteor 1-16 Rocket 4.5 00:12:47 10° NNW 00:18:19 59° W 00:19:34 48° SW
H-2A R/B 4.2 00:16:38 11° WSW 00:18:22 13° W 00:20:46 10° WNW
ISS -0.5 00:17:22 10° NW 00:19:52 20° N 00:22:23 10° NE
Cosmos 1655 Rocket 4.2 00:20:20 42° SW 00:22:27 65° W 00:28:41 10° N
Cosmos 1980 Rocket 4.0 00:18:36 10° N 00:23:09 24° NE 00:27:02 13° E
Cosmos 405 Rocket 3.1 00:25:50 61° NNE 00:25:50 61° NNE 00:29:01 10° N
Timation 2 Rocket 4.1 00:23:48 49° S 00:25:47 74° ESE 00:32:35 10° NNE
Cosmos 2278 3.6 00:21:35 10° NNW 00:27:16 81° WSW 00:28:14 62° S
Cosmos 1515 Rocket 3.9 00:25:29 10° N 00:29:52 54° ENE 00:29:59 53° E
CZ-4C R/B 2.3 00:30:35 41° WSW 00:32:33 71° NW 00:38:38 10° NE
Cosmos 724 4.5 00:35:20 48° SE 00:35:40 49° ESE 00:41:19 10° NE
Cosmos 468 Rocket 4.3 00:31:54 10° NNW 00:36:59 50° WSW 00:37:21 49° WSW
CZ-2C R/B 4.4 00:40:06 26° ESE 00:42:20 35° ENE 00:47:30 10° N
Lacrosse 5 rocket 3.8 00:39:16 10° NNW 00:42:39 22° NNE 00:46:09 10° ENE
Cosmos 1697 Rocket 3.3 00:37:37 10° NNW 00:43:10 50° ENE 00:45:14 34° ESE
Cosmos 2228 Rocket 3.2 00:38:49 10° NNW 00:43:03 63° W 00:43:03 63° W
Cosmos 1814 Rocket 4.4 00:40:35 10° NNW 00:45:40 48° WSW 00:46:01 47° WSW
Cosmos 2082 Rocket 2.2 00:45:38 58° SE 00:46:17 63° ESE 00:51:53 10° NNE
Cosmos 1441 Rocket 4.5 00:47:36 34° ENE 00:47:36 34° ENE 00:50:39 10° NNE
Cosmos 1833 Rocket 2.9 00:50:36 51° SE 00:51:09 53° ESE 00:56:37 10° NE
Cosmos 1437 Rocket 3.8 00:49:21 10° N 00:52:51 38° ENE 00:52:51 38° ENE
Cosmos 836 Rocket 4.4 00:50:57 10° NNW 00:56:11 78° ENE 00:56:58 63° SE
NOSS 3-2 (A) 4.2 00:52:41 22° WSW 00:56:41 51° NW 01:03:17 10° NNE
Helios 1A Rocket 3.1 00:55:34 10° N 00:59:26 62° WNW 00:59:26 62° WNW
ALOS 2 3.8 01:05:18 30° W 01:05:18 30° W 01:08:53 10° NNW
Cosmos 1656 3.6 01:00:47 10° NNW 01:06:32 85° WSW 01:07:36 61° SSE
Lacrosse 5 2.1 01:01:30 10° NW 01:06:33 68° NE 01:08:18 40° ESE
Cosmos 1674 3.3 01:10:04 52° NE 01:10:04 52° NE 01:13:08 10° NNE
Cosmos 540 Rocket 3.9 01:07:57 10° NNW 01:13:03 55° ENE 01:14:31 41° ESE
Cosmos 405 4.1 01:10:41 10° N 01:13:43 41° NE 01:13:43 41° NE
Cosmos 1763 Rocket 3.8 01:09:42 10° NNW 01:14:49 49° WSW 01:15:03 49° WSW
Cosmos 2151 3.2 01:16:00 60° E 01:16:00 60° E 01:20:04 10° NNE
MOS 1-B Rocket 4.3 01:13:51 42° SSE 01:16:44 89° WSW 01:23:22 10° NNW
CZ-4B R/B 3.8 01:18:11 18° WNW 01:18:11 18° WNW 01:19:55 10° NW
Cosmos 1151 Rocket 3.0 01:14:38 10° N 01:18:43 76° WNW 01:18:43 76° WNW
CZ-2C R/B 2.6 01:13:44 10° NNE 01:19:19 89° ESE 01:20:21 61° SSW
Meteor 2-20 Rocket 4.5 01:19:29 51° SSW 01:21:05 72° W 01:27:16 10° N
Nadezhda 2 Rocket 4.4 01:22:51 51° SSW 01:24:34 84° W 01:30:53 10° N
Iridium 2 4.4 01:26:38 45° ENE 01:26:38 45° ENE 01:30:00 10° NNE
SL-16 R/B 3.9 01:22:52 10° N 01:27:48 29° NE 01:32:43 10° ESE
Cosmos 1437 4.2 01:37:31 34° ENE 01:37:31 34° ENE 01:39:56 10° NNE
Cosmos 2322 Rocket 3.5 01:33:37 10° N 01:38:49 37° NE 01:43:41 11° ESE
SL-14 R/B 4.1 01:43:23 40° E 01:43:23 40° E 01:46:57 10° NNE
Sich 1 3.5 01:46:25 48° ESE 01:46:55 51° E 01:51:14 10° NNE
Cosmos 1328 3.8 01:47:52 71° WNW 01:47:52 71° WNW 01:51:43 10° N
Aureole 1 Rocket 3.7 01:44:57 10° NNW 01:49:42 62° WSW 01:50:43 53° SSW
Cosmos 2315 Rocket 4.3 01:43:58 10° NNW 01:50:03 52° W 01:51:39 42° SW
CENTAUR R/B 2.5 01:50:51 45° SW 01:53:01 88° NW 02:00:00 10° NE
Cosmos 1703 4.5 01:54:37 32° ESE 01:55:04 33° E 01:58:39 10° NNE
Cosmos 1271 Rocket 4.5 01:53:40 10° NNE 01:56:52 26° ENE 01:58:10 21° ESE
ISS -1.8 01:53:53 10° NW 01:56:58 36° NNE 02:00:01 10° E
Cosmos 1745 Rocket 4.1 01:54:49 40° SSE 01:57:12 71° E 02:03:31 10° NNE
Cosmos 968 Rocket 3.8 01:59:41 46° SSE 02:00:48 56° ESE 02:05:51 10° NNE
Cosmos 332 Rocket 3.6 01:56:27 10° NNW 02:01:15 77° WSW 02:01:59 62° S
USA 32 4.3 01:56:33 10° NNW 02:01:40 54° W 02:02:36 47° SW
Nadezhda 1 Rocket 4.1 01:55:31 10° N 02:01:40 70° E 02:04:27 34° SSE
Cosmos 1980 Rocket 2.2 02:02:01 10° NNW 02:07:34 59° WSW 02:08:46 48° SSW
Cosmos 2360 Rocket 4.3 02:03:20 10° N 02:07:57 25° NE 02:12:33 10° ESE
Meteor 1-4 Rocket 4.0 02:04:28 10° N 02:07:58 34° ENE 02:09:08 28° ESE
ERS-2 3.3 02:05:04 10° NNE 02:08:27 33° E 02:08:48 32° ESE
ASTEX 1 3.5 02:04:02 10° N 02:08:56 61° W 02:09:56 50° SW
Cosmos 2344 4.3 02:06:43 19° WSW 02:12:21 53° NW 02:21:24 10° NE
Meteor 1-11 4.2 02:13:06 45° SSW 02:14:59 78° W 02:20:50 10° N
Cosmos 1300 3.1 02:12:28 10° NNW 02:15:57 49° WNW 02:15:57 49° WNW
deb Kosmos-1763 4.4 02:17:44 54° SE 02:17:59 55° ESE 02:21:47 10° NNE
IRAS Rocket 4.4 02:12:31 10° NNE 02:18:00 65° ESE 02:20:01 38° S
SL-08 R/B 4.0 02:18:21 24° SE 02:21:08 53° ENE 02:25:56 10° N
BREEZE-M DEB (TANK) 3.4 02:18:14 10° WNW 02:21:11 83° NNE 02:30:45 10° ESE
CZ-2C R/B 4.0 02:21:10 33° WSW 02:22:07 35° W 02:27:21 10° NNW
Lacrosse 5 rocket 1.4 02:18:05 10° NW 02:22:26 88° NE 02:25:31 20° SE
CZ-3 Stage 3 4.5 02:04:19 10° WSW 02:25:07 33° SSW 02:29:56 10° SE
Cosmos 1697 Rocket 3.8 02:22:15 10° NW 02:26:47 25° WSW 02:26:56 25° WSW
ATLAS CENTAUR R/B 4.4 02:25:13 10° N 02:28:48 20° NE 02:32:10 10° E
PSLV R/B 3.6 02:24:46 10° N 02:29:22 74° WNW 02:30:25 51° SW
Cosmos 1538 Rocket 4.0 02:25:15 10° NNW 02:30:25 64° WSW 02:32:04 42° SSW
Cosmos 2082 Rocket 3.9 02:27:27 14° W 02:30:50 23° NW 02:35:19 10° N
Cosmos 923 Rocket 4.3 02:28:52 10° NNW 02:34:08 66° ENE 02:38:08 17° SSE
Cosmos 1726 2.8 02:31:09 10° NNW 02:34:22 39° W 02:34:22 39° W
Cosmos 2058 4.1 02:34:30 28° W 02:35:02 29° WNW 02:38:42 10° NNW
Cosmos 1833 Rocket 4.2 02:32:16 17° W 02:35:22 26° NW 02:40:06 10° N
ATLAS 5 CENTAUR R/B 2.8 02:37:19 29° SSE 02:38:57 38° ESE 02:43:45 10° NE
Cosmos 1680 Rocket 4.0 02:37:25 10° NNW 02:42:35 60° ENE 02:47:39 10° SSE
Cosmos 1455 2.2 02:39:30 10° N 02:43:18 73° E 02:44:25 43° SSE
Abrixas 4.3 02:42:00 16° WNW 02:43:58 32° N 02:46:48 10° ENE
Cosmos 1777 Rocket 4.0 02:41:52 38° SSW 02:43:59 84° ESE 02:49:18 10° NNE
Resurs 1-4 Rocket 4.2 02:40:35 10° NE 02:44:30 20° E 02:48:23 10° SE
Cosmos 773 Rocket 3.8 02:39:28 10° NNW 02:44:38 83° WSW 02:47:30 27° SSE
Cosmos 1633 Rocket 3.9 02:46:01 33° WSW 02:46:59 37° WNW 02:51:08 10° N
Lacrosse 5 3.4 02:45:11 10° WNW 02:47:25 19° W 02:47:25 19° W
Cosmos 2242 Rocket 4.3 02:45:43 10° NNW 02:49:44 36° W 02:50:22 34° WSW
IRS-P3 4.1 02:44:40 10° NNE 02:50:02 79° WNW 02:52:27 34° SSW
Cosmos 371 Rocket 3.8 02:47:09 10° NW 02:51:38 38° WSW 02:52:28 35° SW
CBERS-1 4.0 02:49:19 10° NNE 02:54:28 81° ESE 02:57:01 30° S
Cosmos 2292 Rocket 3.5 02:53:53 36° SE 02:54:51 51° E 02:58:32 10° NNE
Cosmos 1626 2.0 02:56:33 47° S 02:57:34 89° W 03:01:21 10° N
Cosmos 1346 4.3 02:56:55 30° SE 02:57:44 37° E 03:00:37 10° NNE
Cosmos 304 Rocket 3.9 02:56:15 10° NNW 03:01:06 75° ENE 03:05:41 11° SSE
ARIANE 5 R/B 3.6 02:56:53 10° NNE 03:01:38 38° E 03:05:29 14° SSE
SAR-Lupe-3 4.4 03:02:42 38° S 03:03:57 83° WSW 03:07:33 10° NNW
Cosmos 1703 Rocket 4.1 03:00:09 10° N 03:04:27 55° ENE 03:08:03 14° SSE
Cosmos 2181 Rocket 3.9 03:00:30 10° N 03:06:41 82° W 03:11:26 18° S
USA 215 3.2 03:00:40 10° NE 03:07:14 79° SE 03:11:25 24° SW
OAO 3 Rocket 4.1 03:08:11 27° S 03:08:11 27° S 03:11:48 10° SE
Cosmos 1470 Rocket 4.1 03:06:48 32° SW 03:08:19 45° WNW 03:12:35 10° N
SL-16 R/B 2.5 03:06:42 10° NW 03:12:07 47° WSW 03:15:18 23° S
Cosmos 1933 Rocket 4.2 03:11:10 30° WSW 03:12:43 41° WNW 03:16:56 10° N
BREEZE-M DEB (TANK) 3.0 03:11:24 10° WNW 03:16:00 46° N 03:18:18 10° E
ADEOS 3.5 03:13:27 10° NNE 03:18:42 86° WNW 03:22:03 23° SSW
AQUA 4.1 03:17:26 10° N 03:22:05 54° WNW 03:24:37 25° SW
Cosmos 2322 Rocket 2.8 03:17:46 10° NW 03:22:50 35° WSW 03:25:26 23° SSW
Okean 1-7 3.7 03:19:29 10° N 03:23:50 55° E 03:28:05 10° SSE
UNK 4.4 03:21:06 10° SSE 03:25:32 55° ENE 03:30:02 10° N
Cosmos 1869 3.9 03:22:27 10° NNW 03:26:11 40° W 03:27:39 28° SW
Cosmos 2219 Rocket 4.4 03:24:32 10° N 03:29:15 27° NE 03:33:56 10° ESE
Cosmos 1271 Rocket 4.1 03:29:56 10° NW 03:32:48 21° W 03:33:22 20° WSW
ISS -2.9 03:30:21 10° WNW 03:33:24 37° SW 03:36:26 10° SSE
USA 161 1.6 03:34:45 38° W 03:34:45 38° W 03:36:58 10° NNW
Cosmos 2074 Rocket 4.1 03:29:54 13° S 03:35:29 81° E 03:41:46 10° N
Cosmos 2112 Rocket 4.1 03:32:40 10° NNW 03:37:43 53° WSW 03:42:37 11° S
CZ-2D R/B 2.6 03:33:34 10° NNE 03:38:45 59° E 03:44:00 10° S
ERS-2 4.0 03:39:26 10° NNW 03:42:02 18° WNW 03:43:39 14° W
Cosmos 2184 Rocket 4.1 03:36:51 12° S 03:42:46 88° E 03:49:08 10° N
Meteor 1-4 Rocket 4.5 03:40:31 10° NW 03:42:54 16° W 03:43:29 16° W
CENTAUR R/B 4.3 03:39:22 10° W 03:44:44 26° NNW 03:50:38 10° NNE
EO 1 Del DPAF 3.3 03:44:32 12° S 03:48:01 62° WSW 03:51:55 10° NNW
Cosmos 2327 Rocket 4.5 03:42:57 13° S 03:48:30 82° W 03:54:46 10° N
SL-16 R/B 2.5 03:42:52 10° SSE 03:49:07 80° WSW 03:55:27 10° NNW
Cosmos 2360 Rocket 2.3 03:46:48 10° NNW 03:52:19 56° WSW 03:57:48 10° S
Okean O Rocket 3.0 03:49:03 10° NNE 03:53:08 35° E 03:57:10 10° SSE
USA 129 0.8 03:53:56 62° N 03:53:56 62° N 03:55:12 10° NNW
Cosmos 2227 Rocket 4.3 03:53:53 10° SSE 03:58:02 21° E 04:02:12 10° NE
In-Cosmos 22 Rocket 4.2 03:53:48 10° S 03:59:07 77° E 04:04:33 10° NNE
Lacrosse 5 rocket 3.2 03:58:48 10° W 04:01:02 14° WSW 04:01:02 14° WSW
Cosmos 1933 4.3 03:59:32 10° NNW 04:03:04 30° W 04:05:48 14° SW
CZ-4B R/B 4.4 03:59:42 10° NNE 04:04:53 42° E 04:10:07 10° S
ATLAS CENTAUR R/B 1.5 04:03:46 10° NW 04:08:28 71° WSW 04:12:45 10° SSE
Cosmos 2333 4.4 04:03:29 10° NNW 04:09:10 79° ENE 04:14:51 10° SSE
Cosmos 2322 4.2 04:07:12 10° NW 04:12:30 40° WSW 04:17:46 10° S
Cosmos 2219 3.3 04:07:10 12° SSW 04:12:35 79° WNW 04:18:22 10° NNE
Cosmos 1782 4.3 04:09:16 10° N 04:13:03 39° ENE 04:16:48 10° SSE
USA 229 DEB 3.8 04:07:21 12° SW 04:13:51 89° NW 04:20:55 10° NE
Cosmos 1869 Rocket 4.3 04:10:26 13° SW 04:13:56 36° WNW 04:18:04 10° N
USA 229 3.8 04:07:26 12° SW 04:13:58 90° NW 04:21:01 10° NE
Meteor 1-26 Rocket 4.4 04:10:18 10° NNW 04:15:39 51° W 04:20:57 10° SSW
Cosmos 2298 Rocket 4.3 04:11:20 12° SW 04:16:15 59° WNW 04:21:32 10° NNE
GPS 2-05 Rocket1 4.3 04:15:08 14° SW 04:16:49 19° S 04:19:16 10° SE
Cosmos 990 Rocket 4.4 04:13:54 10° S 04:18:59 64° ESE 04:24:06 10° NNE
H-2A R/B 4.2 04:13:41 10° WSW 04:19:57 42° S 04:56:14 10° ESE
Abrixas 3.5 04:17:26 10° WNW 04:20:28 50° NNE 04:23:29 10° E
CZ-2D R/B 3.4 04:17:55 10° NNE 04:22:05 89° E 04:26:08 10° SSW
BREEZE-M DEB (TANK) 3.3 04:15:47 10° WNW 04:23:06 81° NNE 04:26:08 10° E
ATLAS 5 CENTAUR R/B 3.0 04:19:05 10° WSW 04:23:39 36° NW 04:28:36 10° NNE
Resurs 1-4 Rocket 2.4 04:19:28 10° N 04:24:40 55° WNW 04:29:50 10° SSW
BREEZE-M TANK 1.9 04:23:26 10° WNW 04:26:32 69° N 04:29:05 10° E
Cosmos 2297 Rocket 4.1 04:26:04 10° SSE 04:30:46 27° ESE 04:35:27 10° NE
Cosmos 2333 Rocket 2.9 04:28:52 10° NNW 04:34:33 62° ENE 04:40:13 10° SE
Cosmos 1340 Rocket 3.4 04:30:52 10° S 04:34:50 59° E 04:38:47 10° NNE
Cosmos 1356 Rocket 4.5 04:33:57 10° SSE 04:37:51 45° E 04:41:43 10° NNE
Cosmos 1980 4.3 04:32:46 10° NNW 04:38:24 64° ENE 04:44:00 10° SE
MOZ.5/SAFIR/RUBIN 5/SL-8 3.9 04:35:24 10° SSE 04:40:06 90° E 04:44:52 10° NNW
Cosmos 220 Rocket 4.0 04:35:59 10° SSW 04:40:14 86° WNW 04:44:35 10° NNE
ARIANE 5 R/B 3.7 04:36:19 10° N 04:40:36 28° WNW 04:44:50 10° WSW
